Home > Weather > Linköping > Past weeks

Flag for Sweden Past Weather in Linköping, Sweden — Yesterday and Last 2 Weeks

Now
45 °F

Quite cool.


Feels Like: 41 °F
Forecast: 47 / 57 °F
Wind: 6 mph from Northwest

Location: Linkoping / Saab

Current Time: May 26, 2016 at 2:46:52 AM

Latest Report: May 26, 2016 at 1:50 AM


Visibility: N/A

Pressure: 30.04 "Hg

Humidity: 93%

Dew Point: 43 °F

Location of LinköpingLocation

Past Weather in Linköping — Graph

°F

Linköping Temperature Yesterday

Maximum temperature yesterday: 57 °F (at 11:50 AM)
Minimum temperature yesterday: 46 °F (at 11:50 PM)
Average temperature yesterday: 51 °F

High & Low Weather Summary for the Past Weeks

 TemperatureHumidityPressure
High79 °F (May 23, 12:50 PM)100% (May 14, 1:20 AM)30.15 "Hg (May 14, 1:20 AM)
Low34 °F (May 12, 4:20 AM)28% (May 12, 3:50 PM)29.53 "Hg (May 13, 4:20 PM)
Average54 °F72%29.83 "Hg
* Reported May 11 1:20 AM — May 26 1:20 AM, Linköping, Weather by CustomWeather, © 2016

Note: Actual official high and low records may vary slightly from our data, if they occured in-between our weather recording intervals... More about our weather records

Advertising

Linköping Weather History for the Previous 24 Hours

Scroll right to see more
 ConditionsComfort  
Time TempWeatherWind HumidityBarometerVisibility
1:20 AM
Thu, May 26
46 °FCool.5 mph87%30.04 "HgN/A
12:50 AM46 °FCool.6 mph82%30.04 "HgN/A
12:20 AM46 °FCool.5 mph87%30.04 "HgN/A
11:50 PM
Wed, May 25
46 °FClear.6 mph87%30.07 "Hg10 mi
11:20 PM48 °FClear.5 mph82%30.07 "Hg10 mi
10:50 PM48 °FClear.2 mph82%30.07 "Hg10 mi
10:20 PM48 °FSunny.3 mph82%30.07 "Hg10 mi
9:50 PM50 °FSunny.3 mph76%30.07 "Hg10 mi
9:20 PM50 °FSunny.6 mph82%30.07 "Hg10 mi
8:50 PM52 °FPassing clouds.7 mph77%30.07 "HgN/A
8:20 PM52 °FPassing clouds.5 mph77%30.07 "HgN/A
7:50 PM52 °FScattered clouds.9 mph77%30.07 "HgN/A
7:20 PM52 °FScattered clouds.8 mph77%30.07 "HgN/A
6:50 PM52 °FPartly sunny.7 mph82%30.07 "HgN/A
6:20 PM52 °FBroken clouds.8 mph88%30.07 "HgN/A
5:50 PM50 °FPartly sunny.9 mph94%30.07 "HgN/A
5:20 PM50 °FBroken clouds.8 mph88%30.07 "HgN/A
4:50 PM50 °FLight rain. Partly sunny.9 mph94%30.07 "HgN/A
4:20 PM50 °FRain. Partly sunny.10 mph88%30.07 "HgN/A
3:50 PM50 °FLight rain. Partly sunny.10 mph88%30.07 "HgN/A
3:20 PM50 °FBroken clouds.14 mph88%30.07 "HgN/A
2:50 PM50 °FBroken clouds.13 mph94%30.07 "HgN/A
2:20 PM50 °FDrizzle. Broken clouds.12 mph94%30.07 "HgN/A
1:50 PM52 °FLight rain. Partly sunny.12 mph88%30.04 "HgN/A
1:20 PM54 °FPartly sunny.12 mph82%30.04 "HgN/A
12:50 PM55 °FPartly sunny.13 mph77%30.04 "HgN/A
12:20 PM57 °FPartly sunny.10 mph72%30.04 "HgN/A
11:50 AM57 °FBroken clouds.12 mph72%30.04 "HgN/A
11:20 AM55 °FScattered clouds.12 mph72%30.04 "HgN/A
10:50 AM54 °FBroken clouds.10 mph82%30.04 "HgN/A
10:20 AM54 °FBroken clouds.10 mph77%30.04 "HgN/A
9:50 AM54 °FScattered clouds.9 mph77%30.04 "HgN/A
9:20 AM54 °FBroken clouds.9 mph77%30.04 "HgN/A
8:50 AM52 °FLight rain. Partly sunny.9 mph88%30.04 "HgN/A
8:20 AM52 °FBroken clouds.9 mph82%30.04 "HgN/A
7:50 AM52 °FScattered clouds.8 mph82%30.04 "HgN/A
7:20 AM52 °FScattered clouds.8 mph82%30.01 "HgN/A
6:50 AM50 °FScattered clouds.6 mph88%30.01 "HgN/A
6:20 AM50 °FScattered clouds.7 mph88%30.01 "HgN/A
5:50 AM50 °FPartly sunny.7 mph94%30.04 "HgN/A
5:20 AM50 °FLow clouds.6 mph94%30.04 "HgN/A
4:50 AM50 °FLight rain. Low clouds.9 mph94%30.01 "HgN/A
4:20 AM50 °FLow clouds.9 mph94%30.01 "HgN/A
3:50 AM50 °FLow clouds.9 mph94%30.01 "HgN/A
3:20 AM50 °FLow clouds.10 mph94%30.01 "HgN/A
2:50 AM52 °FLow clouds.10 mph88%30.01 "HgN/A
2:20 AM52 °FLow clouds.8 mph88%30.01 "HgN/A
Weather by CustomWeather, © 2016

See weather overviewHow to use our weather pages